Location: Unspecified
(41.1850°N, 73.2650°W)
Time: 02:42:09
(UTC+00:00)

SL-08 R/B - Pass Details

Date: 20 March 2026
Orbit: 946 x 992 km, 83.0° (Epoch: 13 April)

Event Time Altitude Azimuth Distance (km) Brightness Sun altitude
Rises 00:42:06 0° 171° (S) 3,610 7.2 -19.0°
Reaches altitude 10° 00:44:38 10° 167° (SSE) 2,665 6.5 -19.4°
Maximum altitude 00:50:32 55° 92° (E) 1,133 4.5 -20.5°
Drops below altitude 10° 00:56:27 10° 16° (NNE) 2,674 6.8 -21.5°
Sets 00:58:59 0° 13° (NNE) 3,625 7.6 -22.0°
